STARLINK-4726, 53802

Orbit data source: Space-Track

STARLINK-4726, 53802 is a payload satellite owned by SpaceX/Seattle (US) in LEO that was launched on Sun, 11 Sep 2022 UTC via an FALCON 9 launch vehicle from the Air Force Eastern Test Range (AFETR). Payload-class satellites include a variety of spacecraft equipped with specific instruments for various scientific and technological missions. These include communications satellites like Starlink; space stations such as the ISS; scientific satellites like the Hubble; Earth observation satellites from companies like Planet Labs, Umbra, and HawkEye 360; GPS; miniature CubeSats for education and research; and military/defense satellites.

Loading next visibility...
Identifier
53802, 2022-111AF
Orbit
LEO
Last TLE update
17 hours ago
Origin
Manufacturer
SpaceX/Seattle
Mission
Operational Commercial Communications
Bus & Motor
STARLINK, Unknown motor
Mass
305 kg wet, ~290 kg dry
Launch date (UTC)
2022-09-11 (3 years ago)
Launch vehicle
FALCON 9
Launch site
Air Force Eastern Test Range (AFETR)
Object type
Payload
Rocket body
Debris
Shape & HBR
Box + 1 Pan, 8.86 m
Radar Cross Section
13.562 m², Large (>1 m²)

Expand to show TLE details & history

TLE from 17 hours ago
0 STARLINK-4726
1 53802U 22111AF  25188.57075340  .00000387  00000-0  42384-4 0  9993
2 53802  53.2181 284.3708 0000990  79.4469 280.6635 15.08831569156816
Epoch: 2025-07-07T13:41Z
TLE epoch observation values (Epoch: 2025-07-07T13:41:53.093Z)
Latitude
-0.00001°
Longitude
153.12138°
Altitude
540.54 km
Speed
7.593 km/s
True Right ascension
18h 57m 28s
True Declination
0° 00' 00"
Sunlit
Object was in full shadow at epoch
Visualization orbit readout
Latitude
-1.95549°
Longitude
148.39703°
Altitude
540.866 km
Speed
7.593 km/s
Apparent Right ascension
17h 14m 51s
Apparent Declination
-62° 38' 03"
Sunlit
Object is in full shadow
Visualization observer readout
Local Sidereal Time
19:15:59
Azimuth
193.912° SSW
Elevation
-15.391°
Doppler factor
1
Orbital elements
Apogee altitude
540.699 km
Perigee altitude
539.329 km
Semi-major axis
6,918.151 km
Eccentricity
0.0001
Inclination
53.2181°
RAAN
284.3708°
Arg. of periapsis
79.4469°
True anomaly
Unknown
Mean anomaly
280.6635°
Eccentric anomaly
Unknown
Mean motion
3.77188 °/min
Orbital period
95.44 mins
BSTAR
0.000042384
Loading maneuver chart data...
Loading SW <> Apogee altitude chart data...
Loading historical data...
Loading historical data...
Loading historical data...
Loading historical data...
Loading historical data...
Loading historical data...
Loading historical data...

STARLINK-4726 Visibility forecast

Observer location: undefined°, undefined°

Span
Click to sort rows by Start time (UTC) header in descending order
Start Az.
Max El. time (UTC)
Max El. Az.
Max El.
End time (UTC)
End Az.
7 mins2025-07-08 08:56:29.270Z220.942° SW2025-07-08 09:00:29.270Z95.754° ESE42.611°2025-07-08 09:03:29.270Z54.525° ENE
4 mins2025-07-08 10:38:29.270Z306.885° NW2025-07-08 10:39:29.270Z327.904° NNW21.254°2025-07-08 10:42:29.270Z23.809° NE
4 mins2025-07-08 13:59:29.270Z350.478° N2025-07-08 14:01:29.270Z27.051° NE16.951°2025-07-08 14:03:29.270Z58.765° ENE
6 mins2025-07-08 15:38:29.270Z318.784° NNW2025-07-08 15:41:29.270Z81.133° E40.999°2025-07-08 15:44:29.270Z120.404° SE
|